Location: Berkeley
(37.8716°N, 122.2727°W)
Time: 10:40:49
(UTC-07:00)

Envisat - Pass Details

Date: 18 February 2019
Orbit: 764 x 766 km, 98.1° (Epoch: 23 October)

Event Time Altitude Azimuth Distance (km) Brightness Sun altitude
Rises 18:43:09 0° 161° (SSE) 3,216 6.1 -10.9°
Reaches altitude 10° 18:45:27 10° 160° (SSE) 2,294 5.3 -11.4°
Maximum altitude 18:50:30 76° 76° (ENE) 791 2.9 -12.4°
Drops below altitude 10° 18:55:34 10° 351° (N) 2,308 5.5 -13.4°
Sets 18:57:53 0° 350° (N) 3,238 6.3 -13.8°
